Location: Unspecified
(47.8330°N, 0.0000°E)
Time: 13:14:54
(UTC+00:00)

N. Korean satellite - Visible Passes

Search period start: 17 October 2019 00:00
Search period end: 27 October 2019 00:00
Orbit: 455 x 508 km, 97.2° (Epoch: 16 October)

Date Brightness Start Highest point End Pass type
(mag) Time Alt. Az. Time Alt. Az. Time Alt. Az.
17 Oct 10.4 18:19:13 10° WSW 18:20:16 11° W 18:21:19 10° WNW visible
18 Oct 8.0 05:39:15 10° NNE 05:42:42 43° E 05:46:11 10° S visible
18 Oct 9.6 17:52:04 10° SW 17:54:45 21° W 17:57:28 10° NW visible
19 Oct 9.4 05:14:23 10° NE 05:17:17 22° E 05:20:12 10° SSE visible
20 Oct 10.3 04:50:16 10° ENE 04:51:47 12° E 04:53:18 10° ESE visible
21 Oct 6.9 05:56:37 10° NNE 06:00:14 73° ESE 06:03:53 10° S visible
21 Oct 10.1 18:10:33 10° WSW 18:12:22 14° W 18:14:12 10° WNW visible
22 Oct 8.5 05:31:30 10° NNE 05:34:52 35° E 05:38:16 10° SSE visible
22 Oct 9.1 17:43:56 10° SSW 17:46:51 26° W 17:49:50 10° NW visible
23 Oct 9.7 05:06:45 10° NE 05:09:25 19° E 05:12:06 10° SE visible
24 Oct 10.6 04:43:34 10° E 04:43:52 10° E 04:44:12 10° E visible
25 Oct 7.4 05:48:46 10° NNE 05:52:23 58° E 05:56:02 10° S visible
25 Oct 9.9 18:02:07 10° SW 18:04:25 17° W 18:06:45 10° NW visible
26 Oct 8.9 05:23:44 10° NNE 05:27:00 29° E 05:30:16 10° SSE visible
26 Oct 8.7 17:35:49 10° SSW 17:38:56 32° W 17:42:07 10° NNW visible
